| time (UTC) | temp C | wind direction | speed KPH | gust KPH | rain 1hr cm | rain 24hr cm | rain mn cm | humidity % | barometer mb |
| 20260901111906 | 21 | 261 | 0.0 | 0.0 | 0.00 | 0.00 | 0.00 | 87 | 1017.7 |
| 20260901111404 | 21 | 267 | 0.0 | 0.0 | 0.00 | 0.00 | 0.00 | 86 | 1017.8 |
| 20260901110903 | 21 | 269 | 0.0 | 0.0 | 0.00 | 0.00 | 0.00 | 86 | 1017.7 |
| 20260901110359 | 21 | 269 | 0.0 | 0.0 | 0.00 | 0.00 | 0.00 | 86 | 1017.6 |
| 20260901105855 | 21 | 268 | 0.0 | 0.0 | 0.00 | 0.00 | 0.00 | 86 | 1017.4 |
| 20260901105350 | 21 | 269 | 0.0 | 0.0 | 0.00 | 0.00 | 0.00 | 85 | 1017.5 |
| 20260901104846 | 21 | 265 | 0.0 | 0.0 | 0.00 | 0.00 | 0.00 | 85 | 1017.5 |
| 20260901104341 | 21 | 266 | 0.0 | 0.0 | 0.00 | 0.00 | 0.00 | 85 | 1017.5 |
| 20260901103837 | 21 | 271 | 0.0 | 0.0 | 0.00 | 0.00 | 0.00 | 85 | 1017.4 |
| 20260901103336 | 21 | 272 | 0.0 | 0.0 | 0.00 | 0.00 | 0.00 | 85 | 1017.4 |
| 20260901102832 | 21 | 272 | 0.0 | 0.0 | 0.00 | 0.00 | 0.00 | 85 | 1017.4 |
| 20260901102331 | 21 | 270 | 0.0 | 0.0 | 0.00 | 0.00 | 0.00 | 85 | 1017.3 |
| 20260901101827 | 21 | 275 | 0.0 | 0.0 | 0.00 | 0.00 | 0.00 | 85 | 1017.4 |
| 20260901101327 | 21 | 267 | 0.0 | 0.0 | 0.00 | 0.00 | 0.00 | 84 | 1017.4 |
| 20260901100826 | 21 | 268 | 0.0 | 0.0 | 0.00 | 0.00 | 0.00 | 84 | 1017.2 |
| 20260901100321 | 21 | 267 | 0.0 | 0.0 | 0.00 | 0.00 | 0.00 | 84 | 1017.4 |
| 20260901095820 | 21 | 267 | 0.0 | 0.0 | 0.00 | 0.00 | 0.00 | 84 | 1017.3 |
| 20260901095318 | 21 | 270 | 0.0 | 0.0 | 0.00 | 0.00 | 0.00 | 84 | 1017.4 |
| 20260901094812 | 21 | 275 | 0.0 | 0.0 | 0.00 | 0.00 | 0.00 | 84 | 1017.1 |
| 20260901094307 | 21 | 268 | 0.0 | 0.0 | 0.00 | 0.00 | 0.00 | 85 | 1017.3 |
| 20260901093802 | 21 | 261 | 0.0 | 0.0 | 0.00 | 0.00 | 0.00 | 85 | 1017.4 |
| 20260901093301 | 21 | 203 | 0.0 | 0.0 | 0.00 | 0.00 | 0.00 | 84 | 1017.1 |
| 20260901092757 | 21 | 288 | 0.0 | 0.0 | 0.00 | 0.00 | 0.00 | 85 | 1017.1 |
| 20260901092253 | 21 | 259 | 0.0 | 0.0 | 0.00 | 0.00 | 0.00 | 85 | 1017.2 |
| 20260901091748 | 21 | 266 | 0.0 | 0.0 | 0.00 | 0.00 | 0.00 | 85 | 1017.1 |
| 20260901091244 | 21 | 280 | 0.0 | 0.0 | 0.00 | 0.00 | 0.00 | 84 | 1017.1 |
| 20260901090744 | 21 | 283 | 0.0 | 0.0 | 0.00 | 0.00 | 0.00 | 84 | 1017.0 |
| 20260901090239 | 21 | 267 | 0.0 | 0.0 | 0.00 | 0.00 | 0.00 | 84 | 1017.1 |
| 20260901085734 | 21 | 273 | 0.0 | 0.0 | 0.00 | 0.00 | 0.00 | 83 | 1017.2 |
| 20260901085230 | 21 | 272 | 0.0 | 0.0 | 0.00 | 0.00 | 0.00 | 83 | 1017.1 |
| 20260901084726 | 21 | 257 | 0.0 | 0.0 | 0.00 | 0.00 | 0.00 | 82 | 1017.2 |
| 20260901084222 | 21 | 279 | 0.0 | 0.0 | 0.00 | 0.00 | 0.00 | 81 | 1016.8 |
| 20260901083717 | 21 | 271 | 0.0 | 0.0 | 0.00 | 0.00 | 0.00 | 82 | 1017.0 |
| 20260901083216 | 21 | 266 | 0.0 | 0.0 | 0.00 | 0.00 | 0.00 | 82 | 1016.9 |
| 20260901082715 | 21 | 285 | 0.0 | 0.0 | 0.00 | 0.00 | 0.00 | 82 | 1016.8 |
| 20260901082211 | 21 | 259 | 0.0 | 0.0 | 0.00 | 0.00 | 0.00 | 81 | 1016.9 |
| 20260901081706 | 21 | 279 | 0.0 | 0.0 | 0.00 | 0.00 | 0.00 | 82 | 1016.8 |
| 20260901081206 | 21 | 277 | 0.0 | 0.0 | 0.00 | 0.00 | 0.00 | 81 | 1016.8 |
| 20260901080701 | 21 | 271 | 0.0 | 0.0 | 0.00 | 0.00 | 0.00 | 82 | 1016.7 |
| 20260901080159 | 21 | 289 | 0.0 | 0.0 | 0.00 | 0.00 | 0.00 | 82 | 1016.8 |
| 20260901075655 | 21 | 272 | 0.0 | 0.0 | 0.00 | 0.00 | 0.00 | 82 | 1016.7 |
| 20260901075154 | 21 | 309 | 0.0 | 0.0 | 0.00 | 0.00 | 0.00 | 81 | 1016.8 |
| 20260901074654 | 21 | 275 | 0.0 | 0.0 | 0.00 | 0.00 | 0.00 | 81 | 1016.5 |
| 20260901074149 | 21 | 287 | 0.0 | 0.0 | 0.00 | 0.00 | 0.00 | 80 | 1016.7 |
| 20260901073645 | 21 | 347 | 0.0 | 0.0 | 0.00 | 0.00 | 0.00 | 79 | 1016.7 |
| 20260901073141 | 21 | 291 | 0.0 | 0.0 | 0.00 | 0.00 | 0.00 | 81 | 1016.8 |
| 20260901072636 | 21 | 319 | 0.0 | 0.0 | 0.00 | 0.00 | 0.00 | 81 | 1016.7 |
| 20260901072131 | 21 | 294 | 0.0 | 0.0 | 0.00 | 0.00 | 0.00 | 80 | 1016.7 |
| 20260901071631 | 21 | 275 | 0.0 | 0.0 | 0.00 | 0.00 | 0.00 | 79 | 1016.9 |
| 20260901071131 | 21 | 263 | 0.0 | 0.0 | 0.00 | 0.00 | 0.00 | 80 | 1016.7 |
| 20260901070625 | 21 | 228 | 0.0 | 0.0 | 0.00 | 0.00 | 0.00 | 79 | 1016.8 |
| 20260901070121 | 21 | 218 | 0.0 | 0.0 | 0.00 | 0.00 | 0.00 | 80 | 1016.6 |
| 20260901065614 | 21 | 268 | 0.0 | 0.0 | 0.00 | 0.00 | 0.00 | 81 | 1016.6 |
| 20260901065114 | 21 | 267 | 0.0 | 0.0 | 0.00 | 0.00 | 0.00 | 82 | 1016.8 |
| 20260901064612 | 21 | 243 | 0.0 | 0.0 | 0.00 | 0.00 | 0.00 | 82 | 1016.8 |
| 20260901064108 | 21 | 240 | 0.0 | 0.0 | 0.00 | 0.00 | 0.00 | 82 | 1016.8 |
| 20260901063604 | 21 | 236 | 0.0 | 0.0 | 0.00 | 0.00 | 0.00 | 82 | 1016.7 |
| 20260901063100 | 21 | 278 | 0.0 | 0.0 | 0.00 | 0.00 | 0.00 | 82 | 1016.8 |
| 20260901062555 | 21 | 265 | 0.0 | 0.0 | 0.00 | 0.00 | 0.00 | 82 | 1017.0 |
| 20260901062052 | 21 | 277 | 0.0 | 0.0 | 0.00 | 0.00 | 0.00 | 82 | 1016.8 |
| 20260901061548 | 21 | 276 | 0.0 | 0.0 | 0.00 | 0.00 | 0.00 | 82 | 1016.7 |
| 20260901061043 | 21 | 270 | 0.0 | 0.0 | 0.00 | 0.00 | 0.00 | 82 | 1016.7 |
| 20260901060543 | 21 | 262 | 0.0 | 0.0 | 0.00 | 0.00 | 0.00 | 82 | 1016.8 |
| 20260901060038 | 21 | 273 | 0.0 | 0.0 | 0.00 | 0.00 | 0.00 | 82 | 1017.0 |
| 20260901055533 | 21 | 267 | 0.0 | 0.0 | 0.00 | 0.00 | 0.00 | 82 | 1016.7 |
| 20260901055030 | 21 | 278 | 0.0 | 0.0 | 0.00 | 0.00 | 0.00 | 81 | 1016.7 |
| 20260901054526 | 21 | 275 | 0.0 | 0.0 | 0.00 | 0.00 | 0.00 | 81 | 1016.7 |
| 20260901054022 | 21 | 264 | 0.0 | 0.0 | 0.00 | 0.00 | 0.00 | 81 | 1016.8 |
| 20260901053518 | 21 | 274 | 0.0 | 0.0 | 0.00 | 0.00 | 0.00 | 81 | 1016.7 |
| 20260901053014 | 21 | 273 | 0.0 | 0.0 | 0.00 | 0.00 | 0.00 | 80 | 1016.6 |
| 20260901052514 | 21 | 273 | 0.0 | 0.0 | 0.00 | 0.00 | 0.00 | 80 | 1016.8 |
| 20260901052014 | 21 | 253 | 0.0 | 0.0 | 0.00 | 0.00 | 0.00 | 80 | 1016.8 |
| 20260901051509 | 21 | 263 | 0.0 | 0.0 | 0.00 | 0.00 | 0.00 | 80 | 1016.7 |
| 20260901051007 | 21 | 279 | 0.0 | 0.0 | 0.00 | 0.00 | 0.00 | 80 | 1016.6 |
| 20260901050503 | 21 | 261 | 0.0 | 0.0 | 0.00 | 0.00 | 0.00 | 79 | 1016.5 |
| 20260901045958 | 21 | 284 | 0.0 | 0.0 | 0.00 | 0.00 | 0.00 | 79 | 1016.5 |
| 20260901045453 | 21 | 276 | 0.0 | 0.0 | 0.00 | 0.00 | 0.00 | 79 | 1016.6 |
| 20260901044948 | 21 | 263 | 0.0 | 0.0 | 0.00 | 0.00 | 0.00 | 79 | 1016.6 |
| 20260901044443 | 21 | 253 | 0.0 | 0.0 | 0.00 | 0.00 | 0.00 | 78 | 1016.6 |
| 20260901043939 | 21 | 262 | 0.0 | 0.0 | 0.00 | 0.00 | 0.00 | 78 | 1016.6 |
| 20260901043436 | 22 | 266 | 0.0 | 0.0 | 0.00 | 0.00 | 0.00 | 78 | 1016.6 |
| 20260901042935 | 22 | 277 | 0.0 | 0.0 | 0.00 | 0.00 | 0.00 | 77 | 1016.2 |
| 20260901042435 | 22 | 248 | 0.0 | 0.0 | 0.00 | 0.00 | 0.00 | 77 | 1016.6 |
| 20260901041930 | 22 | 265 | 0.0 | 0.0 | 0.00 | 0.00 | 0.00 | 77 | 1016.4 |
| 20260901041425 | 22 | 238 | 0.0 | 0.0 | 0.00 | 0.00 | 0.00 | 76 | 1016.5 |
| 20260901040925 | 22 | 256 | 0.0 | 0.0 | 0.00 | 0.00 | 0.00 | 76 | 1016.6 |
| 20260901040420 | 22 | 283 | 0.0 | 0.0 | 0.00 | 0.00 | 0.00 | 76 | 1016.4 |
| 20260901035919 | 22 | 281 | 0.0 | 0.0 | 0.00 | 0.00 | 0.00 | 76 | 1016.5 |
| 20260901035418 | 22 | 272 | 0.0 | 0.0 | 0.00 | 0.00 | 0.00 | 76 | 1016.2 |
| 20260901034917 | 22 | 284 | 0.0 | 0.0 | 0.00 | 0.00 | 0.00 | 75 | 1016.5 |
| 20260901034412 | 22 | 273 | 0.0 | 0.0 | 0.00 | 0.00 | 0.00 | 75 | 1016.4 |
| 20260901033907 | 22 | 277 | 0.0 | 0.0 | 0.00 | 0.00 | 0.00 | 75 | 1016.5 |
| 20260901033406 | 22 | 278 | 0.0 | 0.0 | 0.00 | 0.00 | 0.00 | 75 | 1016.3 |
| 20260901032904 | 22 | 255 | 0.0 | 0.0 | 0.00 | 0.00 | 0.00 | 74 | 1016.2 |
| 20260901032404 | 23 | 285 | 0.0 | 0.0 | 0.00 | 0.00 | 0.00 | 73 | 1016.3 |
| 20260901031859 | 23 | 238 | 0.0 | 0.0 | 0.00 | 0.00 | 0.00 | 73 | 1016.3 |
| 20260901031355 | 23 | 268 | 0.0 | 0.0 | 0.00 | 0.00 | 0.00 | 73 | 1016.5 |
| 20260901030854 | 23 | 272 | 0.0 | 0.0 | 0.00 | 0.00 | 0.00 | 72 | 1016.3 |
| 20260901030350 | 23 | 271 | 0.0 | 0.0 | 0.00 | 0.00 | 0.00 | 71 | 1016.2 |
| 20260901025848 | 23 | 281 | 0.0 | 0.0 | 0.00 | 0.00 | 0.00 | 71 | 1016.2 |
| 20260901025344 | 23 | 271 | 0.0 | 0.0 | 0.00 | 0.00 | 0.00 | 68 | 1016.1 |
| 20260901024838 | 23 | 258 | 0.0 | 0.0 | 0.00 | 0.00 | 0.00 | 69 | 1016.1 |
| 20260901024338 | 23 | 262 | 0.0 | 0.0 | 0.00 | 0.00 | 0.00 | 70 | 1015.9 |
| 20260901023836 | 23 | 272 | 0.0 | 0.0 | 0.00 | 0.00 | 0.00 | 69 | 1015.8 |
| 20260901023331 | 23 | 258 | 0.0 | 0.0 | 0.00 | 0.00 | 0.00 | 69 | 1015.6 |
| 20260901022826 | 24 | 268 | 0.0 | 0.0 | 0.00 | 0.00 | 0.00 | 69 | 1015.7 |
| 20260901022322 | 24 | 259 | 0.0 | 0.0 | 0.00 | 0.00 | 0.00 | 68 | 1015.7 |
| 20260901021817 | 24 | 279 | 0.0 | 0.0 | 0.00 | 0.00 | 0.00 | 68 | 1015.4 |
| 20260901021313 | 25 | 273 | 0.0 | 0.0 | 0.00 | 0.00 | 0.00 | 67 | 1015.4 |
| 20260901020808 | 25 | 245 | 0.0 | 0.0 | 0.00 | 0.00 | 0.00 | 67 | 1015.2 |
| 20260901020303 | 25 | 250 | 0.0 | 0.0 | 0.00 | 0.00 | 0.00 | 66 | 1015.2 |
| 20260901015803 | 25 | 286 | 0.0 | 0.0 | 0.00 | 0.00 | 0.00 | 66 | 1015.1 |
| 20260901015300 | 25 | 255 | 0.0 | 0.0 | 0.00 | 0.00 | 0.00 | 65 | 1015.3 |
| 20260901014759 | 25 | 240 | 0.0 | 0.0 | 0.00 | 0.00 | 0.00 | 64 | 1015.2 |
| 20260901014255 | 26 | 250 | 0.0 | 0.0 | 0.00 | 0.00 | 0.00 | 64 | 1015.1 |
| 20260901013751 | 26 | 277 | 0.0 | 0.0 | 0.00 | 0.00 | 0.00 | 63 | 1015.1 |
| 20260901013246 | 26 | 278 | 0.0 | 0.0 | 0.00 | 0.00 | 0.00 | 62 | 1015.0 |
| 20260901012741 | 26 | 269 | 0.0 | 0.0 | 0.00 | 0.00 | 0.00 | 61 | 1015.0 |
| 20260901012241 | 26 | 270 | 0.0 | 0.0 | 0.00 | 0.00 | 0.00 | 60 | 1014.9 |
| 20260901011737 | 27 | 290 | 0.0 | 0.0 | 0.00 | 0.00 | 0.00 | 59 | 1014.8 |
| 20260901011232 | 27 | 233 | 0.0 | 0.0 | 0.00 | 0.00 | 0.00 | 60 | 1014.7 |
| 20260901010726 | 28 | 284 | 0.0 | 0.0 | 0.00 | 0.00 | 0.00 | 57 | 1014.8 |
| 20260901010221 | 28 | 245 | 0.0 | 0.0 | 0.00 | 0.00 | 0.00 | 57 | 1014.9 |
| 20260901005719 | 28 | 285 | 0.0 | 0.0 | 0.00 | 0.00 | 0.00 | 53 | 1014.7 |
| 20260901005215 | 29 | 241 | 0.0 | 0.0 | 0.00 | 0.00 | 0.00 | 53 | 1014.8 |
| 20260901004715 | 30 | 286 | 0.0 | 0.0 | 0.00 | 0.00 | 0.00 | 52 | 1014.5 |
| 20260901004210 | 30 | 286 | 0.0 | 0.0 | 0.00 | 0.00 | 0.00 | 51 | 1014.8 |
| 20260901003709 | 31 | 280 | 0.0 | 0.0 | 0.00 | 0.00 | 0.00 | 46 | 1014.8 |
| 20260901003204 | 32 | 233 | 0.0 | 0.0 | 0.00 | 0.00 | 0.00 | 44 | 1014.5 |
| 20260901002702 | 32 | 226 | 0.0 | 0.0 | 0.00 | 0.00 | 0.00 | 42 | 1014.3 |
| 20260901002157 | 32 | 238 | 0.0 | 0.0 | 0.00 | 0.00 | 0.00 | 39 | 1014.5 |
| 20260901001653 | 33 | 257 | 1.6 | 1.6 | 0.00 | 0.00 | 0.00 | 40 | 1014.5 |
| 20260901001148 | 33 | 276 | 0.0 | 0.0 | 0.00 | 0.00 | 0.00 | 40 | 1014.3 |
| 20260901000644 | 34 | 236 | 0.0 | 0.0 | 0.00 | 0.00 | 0.00 | 37 | 1014.4 |
| 20260901000139 | 35 | 217 | 1.6 | 1.6 | 0.00 | 0.00 | 0.00 | 35 | 1014.5 |
| 20260831235638 | 35 | 244 | 1.6 | 1.6 | 0.00 | 0.00 | 0.00 | 36 | 1014.5 |
| 20260831235134 | 35 | 243 | 1.6 | 1.6 | 0.00 | 0.00 | 0.00 | 35 | 1014.4 |
| 20260831234633 | 35 | 205 | 6.4 | 8.0 | 0.00 | 0.00 | 0.00 | 33 | 1014.6 |
| 20260831234128 | 36 | 197 | 4.8 | 6.4 | 0.00 | 0.00 | 0.00 | 33 | 1014.7 |
| 20260831233624 | 36 | 204 | 9.7 | 16.1 | 0.00 | 0.00 | 0.00 | 32 | 1014.5 |
| 20260831233119 | 36 | 256 | 0.0 | 1.6 | 0.00 | 0.00 | 0.00 | 32 | 1014.6 |
| 20260831232614 | 36 | 195 | 4.8 | 4.8 | 0.00 | 0.00 | 0.00 | 32 | 1014.4 |
| 20260831232110 | 36 | 195 | 9.7 | 11.3 | 0.00 | 0.00 | 0.00 | 32 | 1014.6 |
| 20260831231606 | 36 | 161 | 3.2 | 4.8 | 0.00 | 0.00 | 0.00 | 33 | 1014.6 |
| 20260831231101 | 36 | 80 | 4.8 | 4.8 | 0.00 | 0.00 | 0.00 | 31 | 1014.6 |
| 20260831230557 | 36 | 187 | 4.8 | 6.4 | 0.00 | 0.00 | 0.00 | 31 | 1014.5 |
| 20260831230058 | 37 | 232 | 3.2 | 4.8 | 0.00 | 0.00 | 0.00 | 31 | 1014.5 |
| 20260831225553 | 37 | 212 | 4.8 | 6.4 | 0.00 | 0.00 | 0.00 | 29 | 1014.7 |
| 20260831225053 | 37 | 146 | 6.4 | 8.0 | 0.00 | 0.00 | 0.00 | 31 | 1014.6 |
| 20260831224548 | 37 | 126 | 6.4 | 6.4 | 0.00 | 0.00 | 0.00 | 30 | 1014.5 |
| 20260831224043 | 37 | 196 | 8.0 | 11.3 | 0.00 | 0.00 | 0.00 | 30 | 1014.3 |
| 20260831223538 | 38 | 260 | 6.4 | 8.0 | 0.00 | 0.00 | 0.00 | 28 | 1014.5 |
| 20260831223035 | 38 | 239 | 3.2 | 4.8 | 0.00 | 0.00 | 0.00 | 28 | 1014.5 |
| 20260831222531 | 37 | 259 | 0.0 | 0.0 | 0.00 | 0.00 | 0.00 | 30 | 1014.7 |
| 20260831222030 | 37 | 222 | 4.8 | 4.8 | 0.00 | 0.00 | 0.00 | 30 | 1014.7 |
| 20260831221526 | 38 | 247 | 0.0 | 1.6 | 0.00 | 0.00 | 0.00 | 29 | 1014.6 |
| 20260831221021 | 39 | 268 | 1.6 | 1.6 | 0.00 | 0.00 | 0.00 | 28 | 1014.7 |
| 20260831220516 | 38 | 265 | 3.2 | 4.8 | 0.00 | 0.00 | 0.00 | 27 | 1014.9 |
| 20260831220012 | 38 | 219 | 4.8 | 6.4 | 0.00 | 0.00 | 0.00 | 29 | 1014.7 |
| 20260831215507 | 37 | 204 | 6.4 | 8.0 | 0.00 | 0.00 | 0.00 | 30 | 1014.7 |
| 20260831215003 | 37 | 216 | 3.2 | 4.8 | 0.00 | 0.00 | 0.00 | 29 | 1014.8 |
| 20260831214500 | 38 | 202 | 4.8 | 6.4 | 0.00 | 0.00 | 0.00 | 30 | 1014.8 |
| 20260831213956 | 37 | 178 | 1.6 | 1.6 | 0.00 | 0.00 | 0.00 | 30 | 1014.9 |
| 20260831213452 | 37 | 355 | 3.2 | 4.8 | 0.00 | 0.00 | 0.00 | 30 | 1014.9 |
| 20260831212952 | 37 | 191 | 14.5 | 16.1 | 0.00 | 0.00 | 0.00 | 29 | 1014.9 |
| 20260831212449 | 38 | 164 | 11.3 | 16.1 | 0.00 | 0.00 | 0.00 | 28 | 1014.9 |
| 20260831211948 | 37 | 266 | 1.6 | 1.6 | 0.00 | 0.00 | 0.00 | 29 | 1014.8 |
| 20260831211444 | 37 | 184 | 12.9 | 17.7 | 0.00 | 0.00 | 0.00 | 29 | 1014.7 |
| 20260831210942 | 37 | 210 | 9.7 | 11.3 | 0.00 | 0.00 | 0.00 | 31 | 1015.1 |
| 20260831210438 | 38 | 198 | 6.4 | 6.4 | 0.00 | 0.00 | 0.00 | 31 | 1015.1 |
| 20260831205934 | 38 | 127 | 4.8 | 6.4 | 0.00 | 0.00 | 0.00 | 29 | 1015.2 |
| 20260831205429 | 38 | 223 | 6.4 | 8.0 | 0.00 | 0.00 | 0.00 | 29 | 1015.3 |
| 20260831204925 | 37 | 250 | 3.2 | 4.8 | 0.00 | 0.00 | 0.00 | 29 | 1015.1 |
| 20260831204424 | 39 | 301 | 4.8 | 6.4 | 0.00 | 0.00 | 0.00 | 28 | 1015.4 |
| 20260831203923 | 39 | 269 | 0.0 | 1.6 | 0.00 | 0.00 | 0.00 | 28 | 1015.3 |
| 20260831203418 | 38 | 260 | 1.6 | 1.6 | 0.00 | 0.00 | 0.00 | 29 | 1015.4 |
| 20260831202916 | 38 | 155 | 6.4 | 6.4 | 0.00 | 0.00 | 0.00 | 30 | 1015.4 |
| 20260831202412 | 37 | 273 | 3.2 | 4.8 | 0.00 | 0.00 | 0.00 | 29 | 1015.4 |
| 20260831201911 | 38 | 237 | 0.0 | 1.6 | 0.00 | 0.00 | 0.00 | 29 | 1015.4 |
| 20260831201410 | 37 | 210 | 3.2 | 6.4 | 0.00 | 0.00 | 0.00 | 31 | 1015.5 |
| 20260831200906 | 38 | 186 | 9.7 | 12.9 | 0.00 | 0.00 | 0.00 | 30 | 1015.7 |
| 20260831200401 | 37 | 107 | 9.7 | 11.3 | 0.00 | 0.00 | 0.00 | 30 | 1016.1 |
| 20260831195856 | 38 | 250 | 3.2 | 4.8 | 0.00 | 0.00 | 0.00 | 31 | 1015.6 |
| 20260831195352 | 38 | 257 | 1.6 | 1.6 | 0.00 | 0.00 | 0.00 | 30 | 1015.8 |
| 20260831194847 | 38 | 291 | 4.8 | 6.4 | 0.00 | 0.00 | 0.00 | 30 | 1015.9 |
| 20260831194342 | 37 | 212 | 4.8 | 4.8 | 0.00 | 0.00 | 0.00 | 31 | 1015.9 |
| 20260831193841 | 37 | 255 | 6.4 | 8.0 | 0.00 | 0.00 | 0.00 | 31 | 1015.9 |
| 20260831193337 | 37 | 235 | 4.8 | 6.4 | 0.00 | 0.00 | 0.00 | 31 | 1015.9 |
| 20260831192832 | 37 | 190 | 9.7 | 11.3 | 0.00 | 0.00 | 0.00 | 31 | 1016.2 |
| 20260831192331 | 37 | 197 | 9.7 | 12.9 | 0.00 | 0.00 | 0.00 | 31 | 1016.1 |
| 20260831191827 | 37 | 205 | 8.0 | 12.9 | 0.00 | 0.00 | 0.00 | 31 | 1016.2 |
| 20260831191323 | 37 | 213 | 4.8 | 6.4 | 0.00 | 0.00 | 0.00 | 31 | 1016.4 |
| 20260831190819 | 37 | 286 | 4.8 | 6.4 | 0.00 | 0.00 | 0.00 | 30 | 1016.4 |
| 20260831190319 | 38 | 159 | 1.6 | 4.8 | 0.00 | 0.00 | 0.00 | 30 | 1016.5 |
| 20260831185819 | 39 | 148 | 6.4 | 8.0 | 0.00 | 0.00 | 0.00 | 29 | 1016.5 |
| 20260831185314 | 38 | 315 | 6.4 | 8.0 | 0.00 | 0.00 | 0.00 | 30 | 1016.5 |
| 20260831184813 | 37 | 268 | 1.6 | 1.6 | 0.00 | 0.00 | 0.00 | 32 | 1016.7 |
| 20260831184309 | 36 | 204 | 6.4 | 16.1 | 0.00 | 0.00 | 0.00 | 33 | 1016.6 |
| 20260831183804 | 37 | 196 | 6.4 | 6.4 | 0.00 | 0.00 | 0.00 | 33 | 1016.8 |
| 20260831183303 | 38 | 202 | 12.9 | 19.3 | 0.00 | 0.00 | 0.00 | 30 | 1016.8 |
| 20260831182803 | 38 | 261 | 6.4 | 8.0 | 0.00 | 0.00 | 0.00 | 30 | 1016.7 |
| 20260831182258 | 38 | 266 | 4.8 | 4.8 | 0.00 | 0.00 | 0.00 | 31 | 1016.9 |
| 20260831181753 | 38 | 304 | 4.8 | 6.4 | 0.00 | 0.00 | 0.00 | 32 | 1016.9 |
| 20260831181249 | 36 | 211 | 6.4 | 8.0 | 0.00 | 0.00 | 0.00 | 33 | 1017.0 |
| 20260831180748 | 35 | 299 | 3.2 | 4.8 | 0.00 | 0.00 | 0.00 | 36 | 1017.1 |
| 20260831180243 | 37 | 121 | 6.4 | 6.4 | 0.00 | 0.00 | 0.00 | 35 | 1017.2 |
| 20260831175743 | 37 | 19 | 1.6 | 1.6 | 0.00 | 0.00 | 0.00 | 34 | 1017.2 |
| 20260831175239 | 36 | 172 | 3.2 | 4.8 | 0.00 | 0.00 | 0.00 | 35 | 1017.4 |
| 20260831174734 | 37 | 234 | 8.0 | 11.3 | 0.00 | 0.00 | 0.00 | 33 | 1017.4 |
| 20260831174230 | 36 | 244 | 3.2 | 4.8 | 0.00 | 0.00 | 0.00 | 35 | 1017.6 |
| 20260831173729 | 36 | 236 | 3.2 | 4.8 | 0.00 | 0.00 | 0.00 | 36 | 1017.4 |
| 20260831173229 | 36 | 291 | 4.8 | 6.4 | 0.00 | 0.00 | 0.00 | 36 | 1017.6 |
| 20260831172724 | 36 | 277 | 6.4 | 8.0 | 0.00 | 0.00 | 0.00 | 36 | 1017.6 |
| 20260831172220 | 36 | 196 | 1.6 | 1.6 | 0.00 | 0.00 | 0.00 | 36 | 1017.6 |
| 20260831171714 | 36 | 302 | 3.2 | 4.8 | 0.00 | 0.00 | 0.00 | 36 | 1017.7 |
| 20260831171212 | 36 | 284 | 4.8 | 6.4 | 0.00 | 0.00 | 0.00 | 35 | 1017.8 |
| 20260831170708 | 36 | 286 | 3.2 | 4.8 | 0.00 | 0.00 | 0.00 | 37 | 1017.8 |
| 20260831170204 | 36 | 321 | 3.2 | 6.4 | 0.00 | 0.00 | 0.00 | 38 | 1017.9 |
| 20260831165700 | 36 | 232 | 3.2 | 4.8 | 0.00 | 0.00 | 0.00 | 38 | 1018.2 |
| 20260831165156 | 36 | 259 | 1.6 | 4.8 | 0.00 | 0.00 | 0.00 | 38 | 1018.2 |
| 20260831164652 | 35 | 245 | 3.2 | 4.8 | 0.00 | 0.00 | 0.00 | 39 | 1018.0 |
| 20260831164148 | 35 | 285 | 3.2 | 4.8 | 0.00 | 0.00 | 0.00 | 40 | 1018.1 |
| 20260831163643 | 35 | 273 | 3.2 | 6.4 | 0.00 | 0.00 | 0.00 | 40 | 1018.3 |
| 20260831163138 | 35 | 256 | 3.2 | 4.8 | 0.00 | 0.00 | 0.00 | 40 | 1018.2 |
| 20260831162637 | 35 | 312 | 4.8 | 6.4 | 0.00 | 0.00 | 0.00 | 40 | 1018.2 |
| 20260831162135 | 35 | 277 | 3.2 | 6.4 | 0.00 | 0.00 | 0.00 | 40 | 1018.3 |
| 20260831161631 | 35 | 233 | 4.8 | 6.4 | 0.00 | 0.00 | 0.00 | 40 | 1018.2 |
| 20260831161128 | 34 | 344 | 4.8 | 6.4 | 0.00 | 0.00 | 0.00 | 42 | 1018.3 |
| 20260831160627 | 33 | 261 | 6.4 | 8.0 | 0.00 | 0.00 | 0.00 | 43 | 1018.2 |
| 20260831160123 | 34 | 303 | 6.4 | 6.4 | 0.00 | 0.00 | 0.00 | 41 | 1018.2 |
| 20260831155622 | 35 | 272 | 4.8 | 6.4 | 0.00 | 0.00 | 0.00 | 42 | 1018.2 |
| 20260831155118 | 34 | 174 | 4.8 | 6.4 | 0.00 | 0.00 | 0.00 | 44 | 1018.1 |
| 20260831154614 | 35 | 291 | 6.4 | 8.0 | 0.00 | 0.00 | 0.00 | 42 | 1018.2 |
| 20260831154114 | 35 | 171 | 6.4 | 6.4 | 0.00 | 0.00 | 0.00 | 41 | 1017.9 |
| 20260831153613 | 34 | 257 | 4.8 | 6.4 | 0.00 | 0.00 | 0.00 | 43 | 1018.0 |
| 20260831153110 | 34 | 232 | 3.2 | 4.8 | 0.00 | 0.00 | 0.00 | 43 | 1018.1 |
| 20260831152605 | 33 | 356 | 1.6 | 1.6 | 0.00 | 0.00 | 0.00 | 45 | 1018.0 |
| 20260831152101 | 33 | 282 | 1.6 | 4.8 | 0.00 | 0.00 | 0.00 | 45 | 1017.8 |
| 20260831151600 | 32 | 192 | 3.2 | 4.8 | 0.00 | 0.00 | 0.00 | 48 | 1017.9 |
| 20260831151054 | 33 | 163 | 3.2 | 6.4 | 0.00 | 0.00 | 0.00 | 46 | 1018.2 |
| 20260831150549 | 32 | 201 | 3.2 | 4.8 | 0.00 | 0.00 | 0.00 | 48 | 1017.9 |
| 20260831150046 | 32 | 194 | 4.8 | 6.4 | 0.00 | 0.00 | 0.00 | 49 | 1018.2 |
| 20260831145540 | 32 | 206 | 4.8 | 6.4 | 0.00 | 0.00 | 0.00 | 51 | 1017.9 |
| 20260831145036 | 31 | 181 | 3.2 | 4.8 | 0.00 | 0.00 | 0.00 | 52 | 1017.9 |
| 20260831144531 | 31 | 245 | 4.8 | 6.4 | 0.00 | 0.00 | 0.00 | 52 | 1017.9 |
| 20260831144027 | 31 | 179 | 6.4 | 8.0 | 0.00 | 0.00 | 0.00 | 54 | 1017.9 |
| 20260831143521 | 30 | 202 | 6.4 | 8.0 | 0.00 | 0.00 | 0.00 | 54 | 1018.0 |
| 20260831143017 | 30 | 150 | 8.0 | 8.0 | 0.00 | 0.00 | 0.00 | 55 | 1018.1 |
| 20260831142514 | 30 | 230 | 4.8 | 6.4 | 0.00 | 0.00 | 0.00 | 56 | 1017.9 |
| 20260831142009 | 30 | 184 | 1.6 | 1.6 | 0.00 | 0.00 | 0.00 | 56 | 1017.9 |
| 20260831141507 | 30 | 181 | 3.2 | 4.8 | 0.00 | 0.00 | 0.00 | 56 | 1018.2 |
| 20260831141002 | 29 | 171 | 3.2 | 4.8 | 0.00 | 0.00 | 0.00 | 57 | 1018.0 |
| 20260831140502 | 29 | 207 | 4.8 | 6.4 | 0.00 | 0.00 | 0.00 | 57 | 1018.1 |
| 20260831140001 | 30 | 152 | 3.2 | 4.8 | 0.00 | 0.00 | 0.00 | 56 | 1018.1 |
| 20260831135500 | 28 | 218 | 0.0 | 0.0 | 0.00 | 0.00 | 0.00 | 58 | 1017.9 |
| 20260831134955 | 28 | 228 | 0.0 | 0.0 | 0.00 | 0.00 | 0.00 | 57 | 1018.0 |
| 20260831134452 | 27 | 221 | 0.0 | 0.0 | 0.00 | 0.00 | 0.00 | 60 | 1017.9 |
| 20260831133951 | 27 | 221 | 1.6 | 1.6 | 0.00 | 0.00 | 0.00 | 61 | 1018.0 |
| 20260831133446 | 27 | 293 | 0.0 | 1.6 | 0.00 | 0.00 | 0.00 | 61 | 1017.9 |
| 20260831132941 | 26 | 256 | 0.0 | 1.6 | 0.00 | 0.00 | 0.00 | 62 | 1017.7 |
| 20260831132437 | 26 | 226 | 0.0 | 0.0 | 0.00 | 0.00 | 0.00 | 63 | 1017.7 |
| 20260831131936 | 26 | 246 | 0.0 | 0.0 | 0.00 | 0.00 | 0.00 | 65 | 1017.8 |
| 20260831131431 | 25 | 264 | 0.0 | 0.0 | 0.00 | 0.00 | 0.00 | 68 | 1017.5 |
| 20260831130927 | 25 | 259 | 0.0 | 1.6 | 0.00 | 0.00 | 0.00 | 69 | 1017.6 |
| 20260831130422 | 24 | 233 | 0.0 | 0.0 | 0.00 | 0.00 | 0.00 | 71 | 1017.5 |
| 20260831125921 | 23 | 271 | 0.0 | 0.0 | 0.00 | 0.00 | 0.00 | 74 | 1017.4 |
| 20260831125416 | 22 | 277 | 0.0 | 0.0 | 0.00 | 0.00 | 0.00 | 77 | 1017.4 |
| 20260831124912 | 22 | 251 | 0.0 | 0.0 | 0.00 | 0.00 | 0.00 | 79 | 1017.6 |
| 20260831124408 | 22 | 299 | 0.0 | 0.0 | 0.00 | 0.00 | 0.00 | 79 | 1017.3 |
| 20260831123908 | 21 | 301 | 0.0 | 0.0 | 0.00 | 0.00 | 0.00 | 79 | 1017.3 |
| 20260831123407 | 21 | 297 | 1.6 | 1.6 | 0.00 | 0.00 | 0.00 | 81 | 1017.2 |
| 20260831122902 | 20 | 285 | 0.0 | 0.0 | 0.00 | 0.00 | 0.00 | 83 | 1017.2 |
| 20260831122357 | 20 | 281 | 0.0 | 0.0 | 0.00 | 0.00 | 0.00 | 84 | 1016.9 |
| 20260831121852 | 20 | 267 | 0.0 | 0.0 | 0.00 | 0.00 | 0.00 | 83 | 1016.9 |
| 20260831121348 | 20 | 282 | 0.0 | 0.0 | 0.00 | 0.00 | 0.00 | 83 | 1016.9 |
| 20260831120843 | 20 | 282 | 0.0 | 0.0 | 0.00 | 0.00 | 0.00 | 84 | 1016.8 |
| 20260831120338 | 20 | 293 | 0.0 | 0.0 | 0.00 | 0.00 | 0.00 | 83 | 1016.6 |
| 20260831115833 | 20 | 282 | 0.0 | 0.0 | 0.00 | 0.00 | 0.00 | 82 | 1016.8 |
| 20260831115330 | 20 | 283 | 0.0 | 0.0 | 0.00 | 0.00 | 0.00 | 82 | 1016.7 |
| 20260831114828 | 20 | 274 | 0.0 | 0.0 | 0.00 | 0.00 | 0.00 | 83 | 1016.4 |
| 20260831114327 | 20 | 264 | 0.0 | 0.0 | 0.00 | 0.00 | 0.00 | 82 | 1016.5 |
| 20260831113823 | 20 | 295 | 0.0 | 1.6 | 0.00 | 0.00 | 0.00 | 81 | 1016.5 |
| 20260831113323 | 20 | 266 | 0.0 | 0.0 | 0.00 | 0.00 | 0.00 | 81 | 1016.3 |
| 20260831112818 | 20 | 266 | 0.0 | 0.0 | 0.00 | 0.00 | 0.00 | 79 | 1016.3 |